THOR ABLESTAR DEB, 245

Orbit data source: Space-Track

THOR ABLESTAR DEB, 245 is space debris in LEO originally from a launch on Thu, 29 Jun 1961 UTC launched from the Air Force Eastern Test Range (AFETR). Debris objects in space refer to the collection of defunct objects orbiting the Earth. Examples of debris include non-operational satellites, rocket bodies, and fragments generated from explosions, collisions, or faulty payload assembly.

Loading next visibility...
Identifier
245, 1961-015CA
Orbit
LEO
Country
Flag of USUS
Related business
Manufacturer
Unknown
Mission
Spacecraft
Bus & Motor
Unknown
Mass
Unknown
Launch date (UTC)
1961-06-29 (64 years ago)
Launch vehicle
Unknown
Launch site
Air Force Eastern Test Range (AFETR)
Object type
Payload
Rocket body
Debris
Shape & HBR
Unknown shape, 0.2 m
Radar Cross Section
Medium (>0.1 m² and <1 m²)

Expand to show TLE details & history
Last TLE update: 16 hours ago

TLE from 16 hours ago
0 THOR ABLESTAR DEB
1 00245U 61015CA  25311.27195885  .00001606  00000-0  81765-3 0  9994
2 00245  66.1047  34.4032 0054060 320.2791  39.4342 14.17758171296411
Epoch: 2025-11-07T06:31Z
TLE epoch observation values (Epoch: 2025-11-07T06:31:37.244Z)
Latitude
-0.00003°
Longitude
-110.2203°
Altitude
804.966 km
Speed
7.467 km/s
True Right ascension
02h 17m 36s
True Declination
0° 00' 00"
Sunlit
Object was in full shadow at epoch
Visualization orbit readout
Latitude
Unknown
Longitude
Unknown
Altitude
Unknown
Speed
Unknown
Apparent Right ascension
Unknown
Apparent Declination
Unknown
Sunlit
N/A
Visualization observer readout
Local Sidereal Time
19:09:13
Azimuth
Unknown
Elevation
Unknown
Doppler factor
Unknown
Orbital elements
Apogee altitude
870.373 km
Perigee altitude
792.424 km
Semi-major axis
7,209.535 km
Eccentricity
0.00541
Inclination
66.1047°
RAAN
34.4032°
Arg. of periapsis
320.2791°
True anomaly
39.82975°
Mean anomaly
39.4342°
Eccentric anomaly
39.63177°
Mean motion
3.54554 °/min
Orbital period
101.54 mins
BSTAR
0.00081765
Loading maneuver chart data...
Computing Atmospheric mass density...

Documentation

Showing up to 5 results
|